STARLINK-11471, 62225

Orbit data source: Space-Track

STARLINK-11471, 62225 is a payload satellite owned by SpaceX/Seattle (US) in LEO that was launched on Thu, 05 Dec 2024 UTC via an FALCON 9 launch vehicle from the Air Force Western Test Range (AFWTR). Payloads include a variety of satellites, spacecraft, and rockets equipped with specific instruments for various scientific and technological missions. These include communications satellites like Starlink; space stations such as the ISS; scientific satellites like the Hubble; Earth observation satellites from companies like Planet Labs, Umbra, and HawkEye 360; GPS; miniature CubeSats for education and research; and military/defense satellites.

Loading next visibility...
STARLINK-11471 details
Identifier
62225, 2024-231H
Orbit
LEO
Last TLE update7 hours ago
Origin
Flag of USSpaceX/Seattle (US)
ManufacturerSpaceX/Seattle
MissionOperational spacecraft
Bus & MotorSTARLINK V2M, Unknown motor
Mass730 kg wet, ~700 kg dry
Launch date (UTC)
2024-12-05 (2 months ago)
Launch vehicle
FALCON 9
Launch site
Air Force Western Test Range (AFWTR)
Object type
Payload
Rocket body
Debris
Shape & HBRUnknown
Radar Cross SectionLarge (>1 m²)

Expand to show TLE details & history

TLE from 7 hours ago
0 STARLINK-11471
1 62225U 24231H   25025.58334491  .00076518  00000-0  63180-3 0  9998
2 62225  53.1588 312.8781 0001079  86.3345  21.5812 15.69665254  5996
Epoch: 2025-01-25T14:00Z
Definitive object data (Epoch: 2025-01-25T14:00:01Z)
Latitude49.74543°
Longitude96.11298°
Altitude364.924 km
Speed7.697 km/s
True Right ascension04h 44m 59s
True Declination49° 33' 57"
Sunlit
Object was in full shadow at TLE epoch
Visualization TLE readout
Latitude-42.12962°
Longitude-161.25708°
Altitude374.399 km
Speed7.684 km/s
Apparent Right ascension10h 48m 39s
Apparent Declination-41° 28' 53"
Sunlit
Object is in daylight
Visualization observer readout
Local Sidereal Time22:00:40
Azimuth256.349° W
Elevation-80.78°
Doppler factor1
Orbital elements
Apogee altitude360.843 km
Perigee altitude359.389 km
Semi-major axis6,738.253 km
Eccentricity0.0001079
Inclination53.1588°
RAAN312.8781°
Arg. of periapsis86.3345°
True anomaly21.58575°
Mean anomaly21.5812°
Eccentric anomaly21.58347°
Mean motion3.92394 °/min
BSTAR0.0006318
Orbital period91.74 mins
Loading maneuver chart data...
Loading historical data...
Loading historical data...
Loading historical data...
Loading historical data...
Loading historical data...
Loading historical data...
Loading historical data...

STARLINK-11471 Visibility forecast

Observer location: undefined°, undefined

Span
Click to sort rows by Start time (UTC) header in descending order
Start Az.
Max El. time (UTC)
Max El. Az.
Max El.
End time (UTC)
End Az.
4 mins2025-01-25 21:21:31.810Z188.808° SSW2025-01-25 21:23:31.810Z120.573° SE27.608°2025-01-25 21:25:31.810Z71.616° E
|